This demonstration page uses our WeatherBlox Daily Observations layout. Learn more.

Left ArrowRight Arrow

36.17497, -115.13722

Hourly Observations for March 31, 2016

Temp ( °F °C ) Dew Point ( °F °C ) Humidity (%) Winds ( mph kmh ) Pressure ( in mb ) Visibility ( mi km ) Precip ( " mm )
12:53 am 00:53 Clear 52 11.1 25 -3.9 35 35 NNW 13 20 30.01 1016 10 16.0934 0 0
1:53 am 01:53 Clear 51 10.6 25 -3.9 36 36 NNW 13 20 30.02 1017 10 16.0934 0 0
2:53 am 02:53 Clear 52 11.1 25 -3.9 35 35 NNW 10 17 30.01 1016 10 16.0934 0 0
3:53 am 03:53 Clear 50 10 25 -3.9 38 38 NNW 13 20 30.01 1016 10 16.0934 0 0
4:53 am 04:53 Clear 50 10 25 -3.9 38 38 N 13 20 30 1016 10 16.0934 0 0
5:53 am 05:53 Clear 49 9.4 25 -3.9 39 39 N 13 20 30.01 1016 10 16.0934 0 0
6:53 am 06:53 Sunny 50 10 26 -3.3 39 39 N 14 22 30.02 1017 10 16.0934 0 0
7:53 am 07:53 Sunny 53 11.7 27 -2.8 37 37 N 13 20 30.03 1017 10 16.0934 0 0
8:53 am 08:53 Sunny 57 13.9 28 -2.2 33 33 N 10 17 30.03 1017 10 16.0934 0 0
9:53 am 09:53 Sunny 60 15.6 27 -2.8 28 28 N 12 19 30.03 1017 10 16.0934 0 0
10:53 am 10:53 Sunny 63 17.2 25 -3.9 24 24 NNE 9 15 30.02 1017 10 16.0934 0 0
11:53 am 11:53 Sunny 64 17.8 24 -4.4 22 22 NNE 8 13 30.01 1016 10 16.0934 0 0
12:53 pm 12:53 Sunny 67 19.4 24 -4.4 20 20 NNE 13 20 29.98 1015 10 16.0934 0 0
1:53 pm 13:53 Sunny 69 20.6 23 -5 17 17 N 10 17 29.95 1014 10 16.0934 0 0
2:53 pm 14:53 Sunny 69 20.6 22 -5.6 17 17 NW 9 15 29.93 1014 10 16.0934 0 0
3:53 pm 15:53 Partly Cloudy 72 22.2 22 -5.6 15 15 undefined N/A 29.91 1013 10 16.0934 0 0
4:53 pm 16:53 Sunny 73 22.8 20 -6.7 13 13 NW 15 24 29.88 1012 10 16.0934 0 0
5:53 pm 17:53 Sunny 72 22.2 21 -6.1 15 15 NW 13 20 29.88 1012 10 16.0934 0 0
6:53 pm 18:53 Mostly Sunny 71 21.7 22 -5.6 16 16 N 9 15 29.88 1012 10 16.0934 0 0
7:53 pm 19:53 Partly Cloudy 70 21.1 24 -4.4 18 18 N 9 15 29.9 1012 10 16.0934 0 0
8:53 pm 20:53 Cloudy 69 20.6 22 -5.6 17 17 ENE 10 17 29.93 1014 10 16.0934 0 0
9:53 pm 21:53 Mostly Cloudy 67 19.4 27 -2.8 22 22 E 12 19 29.96 1015 10 16.0934 0 0
10:53 pm 22:53 Partly Cloudy 65 18.3 28 -2.2 25 25 ENE 8 13 29.99 1016 10 16.0934 0 0
11:53 pm 23:53 Mostly Cloudy 64 17.8 31 -0.6 29 29 E 12 19 30.02 1017 10 16.0934 0 0

Powered by AerisWeather